Nashua, NH

4:07 AM EST on January 19, 2017 (GMT -0500)
Boire

Weather History for KASH - February, 2012

Change the Weather History Date:

Monday, February 13, 2012

  Actual Average Record
Temperature  
Mean Temperature 26 °F -  
Max Temperature 39 °F 35 °F 58 °F (1984)
Min Temperature 13 °F 11 °F -19 °F (1967)
Degree Days  
Heating Degree Days 39    
Moisture  
Dew Point 12 °F    
Average Humidity 53    
Maximum Humidity 75    
Minimum Humidity 35    
Precipitation  
Precipitation 0.00 in - - ()
Sea Level Pressure  
Sea Level Pressure 29.87 in    
Wind  
Wind Speed 6 mph (West)    
Max Wind Speed 18 mph    
Max Gust Speed 29 mph    
Visibility 10 miles    
Events      
Averages and records for this station are not official NWS values.
T = Trace of Precipitation, MM = Missing Value Source: NWS Daily Summary

Daily Weather History Graph

Daily Weather History Graph

Search for Another Location

Airport or City:

Trip Planner

Search our weather history database for the weather conditions in past years. The results will help you decide how hot, cold, wet, or windy it might be!

Date:

Astronomy

Feb. 13, 2012 Rise Set
Actual Time 6:46 AM EST 5:14 PM EST
Civil Twilight 6:17 AM EST 5:43 PM EST
Nautical Twilight 5:44 AM EST 6:16 PM EST
Astronomical Twilight 5:11 AM EST 6:49 PM EST
Moon No Moon Rise 9:32 AM EST (2/13)
Length of Visible Light 11h 26m
Length of Day
10h 27m
Waning Gibbous, 62% of the Moon is Illuminated
Feb 13
Waning Gibbous
Feb 14
Last Quarter
Feb 21
New
Feb 29
First Quarter
Mar 8
Full

Hourly Weather History & Observations

Time (EST) Temp. Windchill Dew Point Humidity Pressure Visibility Wind Dir Wind Speed Gust Speed Precip Events Conditions
12:51 AM 14.0 °F 8.2 °F -2.9 °F 47% 29.89 in 10.0 mi WSW 3.5 mph - N/A   Clear
1:51 AM 13.1 °F 7.1 °F -0.9 °F 54% 29.89 in 10.0 mi Variable 3.5 mph - N/A   Clear
2:51 AM 14.0 °F 8.2 °F 0.1 °F 54% 29.88 in 10.0 mi Variable 3.5 mph - N/A   Clear
3:51 AM 14.0 °F 6.5 °F 1.0 °F 56% 29.88 in 10.0 mi Variable 4.6 mph - N/A   Partly Cloudy
4:51 AM 14.0 °F - 1.0 °F 56% 29.87 in 10.0 mi Calm Calm - N/A   Mostly Cloudy
5:51 AM 17.1 °F 10.0 °F 4.1 °F 57% 29.85 in 10.0 mi Variable 4.6 mph - N/A   Overcast
6:51 AM 20.1 °F 15.2 °F 9.1 °F 62% 29.85 in 10.0 mi Variable 3.5 mph - N/A   Overcast
7:51 AM 22.1 °F 17.4 °F 14.0 °F 71% 29.85 in 10.0 mi Variable 3.5 mph - 0.00 in   Mostly Cloudy
8:51 AM 27.1 °F 21.8 °F 17.1 °F 66% 29.84 in 10.0 mi Variable 4.6 mph - 0.00 in   Clear
9:51 AM 32.0 °F 23.0 °F 18.1 °F 57% 29.83 in 10.0 mi West 11.5 mph - N/A   Mostly Cloudy
10:51 AM 34.0 °F 26.6 °F 18.1 °F 52% 29.83 in 10.0 mi West 9.2 mph 23.0 mph N/A   Mostly Cloudy
11:51 AM 36.9 °F 29.1 °F 16.2 °F 43% 29.82 in 10.0 mi WNW 11.5 mph 23.0 mph N/A   Mostly Cloudy
12:51 PM 37.9 °F 28.5 °F 15.1 °F 39% 29.81 in 10.0 mi West 17.3 mph 28.8 mph N/A   Mostly Cloudy
1:51 PM 39.9 °F 32.1 °F 15.1 °F 36% 29.80 in 10.0 mi West 13.8 mph 25.3 mph N/A   Scattered Clouds
2:51 PM 38.8 °F 29.4 °F 14.0 °F 36% 29.81 in 10.0 mi WNW 18.4 mph 23.0 mph N/A   Scattered Clouds
3:51 PM 38.8 °F 31.6 °F 13.1 °F 35% 29.83 in 10.0 mi West 11.5 mph 19.6 mph N/A   Scattered Clouds
4:51 PM 37.9 °F 30.5 °F 15.1 °F 39% 29.86 in 10.0 mi West 11.5 mph 19.6 mph N/A   Scattered Clouds
5:51 PM 36.0 °F 28.0 °F 16.2 °F 45% 29.89 in 10.0 mi West 11.5 mph 18.4 mph N/A   Scattered Clouds
6:51 PM 34.9 °F 28.3 °F 16.2 °F 46% 29.91 in 10.0 mi West 8.1 mph 16.1 mph N/A   Clear
7:51 PM 32.9 °F - 16.2 °F 50% 29.93 in 10.0 mi Calm Calm - N/A   Clear
8:51 PM 28.0 °F - 16.2 °F 61% 29.94 in 10.0 mi Calm Calm - N/A   Clear
9:51 PM 27.1 °F 21.8 °F 17.1 °F 66% 29.96 in 10.0 mi SW 4.6 mph - N/A   Clear
10:51 PM 26.1 °F - 19.0 °F 75% 29.97 in 10.0 mi Calm Calm - N/A   Clear
11:51 PM 25.2 °F - 17.1 °F 71% 29.98 in 10.0 mi Calm Calm - N/A   Clear